Location: Caltech
(34.1382°N, 118.1253°W)
Time: 11:32:28
(UTC-07:00)

X-37B - Visible Passes

Search period start: 15 May 2021 00:00
Search period end: 25 May 2021 00:00
Orbit: 386 x 389 km, 45.0° (Epoch: 08 May)

Date Brightness Start Highest point End Pass type
(mag) Time Alt. Az. Time Alt. Az. Time Alt. Az.
15 May 1.8 21:36:54 10° WNW 21:39:31 33° SW 21:39:31 33° SW visible
16 May 0.6 20:38:20 10° WNW 20:41:31 75° SW 20:43:47 17° SE visible
17 May 2.8 21:17:27 10° W 21:19:31 16° SW 21:20:25 15° SSW visible
18 May 1.9 20:18:23 10° WNW 20:21:18 33° SW 20:24:12 10° SSE visible
